Regional Weather Roundup
Issued by NWS Sterling, VA

Home | Current Version | Previous Version | Graphics & Text | Print | Product List | Glossary On
Versions: 1 2 3 4 5 6 7 8 9 10 11 12 13 14 15 16 17 18 19 20 21 22 23 24 25 26 27 28 29 30 31 32 33 34 35 36 37 38 39 40 41 42 43 44 45 46 47 48 49 50
257
ASUS41 KLWX 100510
RWRLWX

REGIONAL WEATHER ROUNDUP
NATIONAL WEATHER SERVICE BALTIMORE MD/WASHINGTON DC
1200 AM EST WED FEB 10 2016

Note: "FAIR" indicates few or no clouds below 12,000 feet
with no significant weather and/or obstructions to visibility.
 TC=TEMPERATURE CELSIUS

 * =Non NWS site. Station does not report precipitation (e.g. rain,
    snow, etc.), thunder, or fog.

DCZ001-MDZ009-015-VAZ040>042-051-053>054-100600-
WASHINGTON METRO

CITY           SKY/WX    TMP DP  RH WIND       PRES   REMARKS
WASHINGTON NAT CLOUDY    32  19  58 NW10      29.71R WCI  24
DULLES         CLOUDY    30  18  60 NW15      29.69S WCI  19
ANDREWS AFB    CLOUDY    31  20  62 NW10G22   29.68R WCI  22
FT BELVOIR     CLOUDY    32  19  56 W12       29.70S WCI  23
QUANTICO       CLOUDY    34  21  59 NW6       29.72S
COLLEGE PARK*  CLOUDY    32  21  64 NW7       29.69S
LEESBURG*      CLOUDY    32  25  74 NW14G21   29.70S WCI  22
MANASSAS*      CLOUDY    32  21  64 NW5       29.71R
GAITHERSBURG*  CLOUDY    28  19  69 W14G25    29.71R WCI  17

$$

MDZ006>007-011-014-100600-
BALTIMORE METRO

CITY           SKY/WX    TMP DP  RH WIND       PRES   REMARKS
BWI AIRPORT    CLOUDY    31  22  69 W15G25    29.67R WCI  20
MD SCIENCE CTR   N/A     32  21  64 MISG      29.67S
MARTIN STATE   CLOUDY    32  28  86 W10       29.69R WCI  24
ANNAPOLIS      CLOUDY    33  23  66 W8G20     29.68S WCI  26
FORT MEADE*    MOCLDY    30  23  74 W9G18     29.70S WCI  22

$$

MDZ012-015-019>023-100600-
MARYLAND EASTERN SHORE

CITY           SKY/WX    TMP DP  RH WIND       PRES   REMARKS
OCEAN CITY     CLOUDY    35  31  85 NW7       29.66S
SALISBURY      CLOUDY    34  27  75 W7        29.66S
BAY BRIDGE AP*   N/A     32  25  74 W9        29.68S WCI  24
CAMBRIDGE*     CLOUDY    32  25  74 W7        29.68R
EASTON*        CLOUDY    34  27  76 NW9       29.71S WCI  27

$$

MDZ017>025-100600-
SOUTHERN MARYLAND

CITY           SKY/WX    TMP DP  RH WIND       PRES   REMARKS
PATUXENT RIVER CLOUDY    33  21  61 NW12      29.69R WCI  24
ST INIGOES     CLOUDY    34  23  64 NW7       29.69R
LEONARDTOWN*   CLOUDY    32  21  64 W6        29.70S

$$

MDZ003>005-100600-
NORTH CENTRAL MARYLAND

CITY           SKY/WX    TMP DP  RH WIND       PRES   REMARKS
FREDERICK*     CLOUDY    30  27  86 W7        29.72S
HAGERSTOWN APT FLURRIES  27  20  75 W7        29.68R
WESTMINSTER*   LGT SNOW  27  25  93 W10G16    29.64S WCI  17

$$

MDZ501>502-100600-
WESTERN MARYLAND

CITY           SKY/WX    TMP DP  RH WIND       PRES   REMARKS
OAKLAND*       FOG       16  14  93 W14G23    29.59S VSB 1   WCI   1
CUMBERLAND*    CLOUDY    30  18  59 W7        29.74S

$$

VAZ025>031-100600-
SHENANDOAH VALLEY

CITY           SKY/WX    TMP DP  RH WIND       PRES   REMARKS
WINCHESTER*    CLOUDY    30  19  64 W7        29.70S
FRONT ROYAL*   CLOUDY    30  16  55 W5        29.70R
LURAY*         CLOUDY    28  16  59 SW7       29.71S
NEW MARKET*    CLOUDY    28  13  53 W5        29.71S
STAUNTON*      CLOUDY    31  15  51 W6        29.73S
WAYNESBORO*    CLOUDY    26  11  54 W7        29.71R

$$

WVZ021-048>050-054>055-100600-
EASTERN WEST VIRGINIA PANHANDLE

CITY           SKY/WX    TMP DP  RH WIND       PRES   REMARKS
MARTINSBURG    CLOUDY    28  17  63 W13G21    29.70R WCI  17
PETERSBURG*    MOCLDY    28  11  50 CALM      29.74R

$$

VAZ036>039-050-100600-
CENTRAL FOOTHILLS

CITY           SKY/WX    TMP DP  RH WIND       PRES   REMARKS
CHARLOTTESVILL CLOUDY    31  13  47 VRB7      29.71R
CULPEPER*      CLOUDY    32  16  51 NW7       29.71S
ORANGE*        CLOUDY    32  23  69 CALM      29.72R
GORDONSVILLE*  CLOUDY    32  17  52 W5        29.70R
WARRENTON*     CLOUDY    33  22  63 NW10      29.70R WCI  25

$$

VAZ055>057-100600-
NORTH AND CENTRAL PIEDMONT

CITY           SKY/WX    TMP DP  RH WIND       PRES   REMARKS
FREDERICKSBRG* CLOUDY    32  29  88 NW6       29.71R
STAFFORD*      CLOUDY    32  20  61 NW8       29.75R WCI  25

$$

NCZ024-NYZ072-PAZ021-071-VAZ022-071-100600-
OTHER REGIONAL OBSERVATIONS

CITY           SKY/WX    TMP DP  RH WIND       PRES   REMARKS
NEW YORK CITY  CLOUDY    34  26  72 CALM      29.62S
PHILADELPHIA   CLOUDY    35  31  85 W6        29.63S
PITTSBURGH     FLURRIES  24  19  81 SW10      29.68S WCI  14
ROANOKE        FAIR      24  11  57 NW10G24   29.80S WCI  14
RICHMOND       CLOUDY    32  17  54 W13       29.72S WCI  22
RALEIGH        PTCLDY    29  12  49 W7        29.82S

$$

ANZ530>537-100600-
MARINE OBSERVATIONS

STATION/POSITION TIME  TEMP    WIND        PRES
                       AIR SEA DIR/SP/G
                 (UTC) (F)     (DEG/KT/KT) (MB)
THOMAS PT LIGHT  NOT AVBL
BALT KEY BRIDGE  0400   33     280/ 13/ 14 1004.5R
COVE POINT       0400   34     330/ 12/ 15 1005.7S
LEWISETTA        0400   35 41  300/  7/  8 1005.2R
SOLOMONS ISLAND  0400   35 41  300/  9/ 13   N/A
PINEY POINT      0400          340/ 19/ 21   N/A

$$





USA.gov is the U.S. government's official web portal to all federal, state and local government web resources and services.